Language: 


Des rapports , des résumés tant et plus, au choix de chacun....


Données statistiques de la station
Quotidien Rapport Mai 6, 2017 Unités:  Métrique    Anglais   les deux
« Précédent Jour
Suivant Jour »
Quotidien Hebdomadaire Mensuel Annuel Actuel
  Haut: Bas: Moyen:
Température: 22.6 °C 7.1 °C 14.1 °C
Pt de rosée: 11.0 °C 7.0 °C 9.3 °C
Humidité: 98 % 46 % 75 %
Vitesse du vent: 19.5 km/h 0.0 km/h 10.6 km/h
Rafales: 27.4 km/h - -
Vent:- - East
Pression: 1014.1 hPa 1006.0 hPa -
Précipitation: 0.0 mm    
Historical Graphs
 
 
Données statistiques pour Mai 6, 2017
Heure Température Point de rosée Pression Vent Vitesse du vent Refales Humidité Pluie (taux horaire)
00:00 9.2 °C 8.0 °C 1014.1 hPa NE 10.5 km/h 15.4 km/h 91 % 0.0 mm
00:05 9.2 °C 8.0 °C 1014.1 hPa NE 8.7 km/h 15.4 km/h 91 % 0.0 mm
00:11 9.2 °C 8.0 °C 1014.1 hPa NE 11.9 km/h 15.4 km/h 91 % 0.0 mm
00:16 9.1 °C 8.0 °C 1014.1 hPa NNE 10.8 km/h 15.4 km/h 91 % 0.0 mm
00:21 9.1 °C 8.0 °C 1014.1 hPa NE 13.7 km/h 14.3 km/h 91 % 0.0 mm
00:26 9.1 °C 8.0 °C 1014.1 hPa East 10.5 km/h 14.3 km/h 91 % 0.0 mm
00:31 9.1 °C 8.0 °C 1014.1 hPa NNE 11.6 km/h 14.3 km/h 92 % 0.0 mm
00:36 9.1 °C 8.0 °C 1013.1 hPa NE 10.1 km/h 14.3 km/h 92 % 0.0 mm
00:41 9.0 °C 8.0 °C 1013.1 hPa NE 15.8 km/h 15.8 km/h 92 % 0.0 mm
00:46 9.0 °C 8.0 °C 1013.1 hPa ENE 13.0 km/h 15.8 km/h 92 % 0.0 mm
00:51 9.0 °C 8.0 °C 1013.1 hPa NE 10.1 km/h 15.8 km/h 93 % 0.0 mm
00:56 8.9 °C 8.0 °C 1013.1 hPa ENE 12.2 km/h 15.8 km/h 93 % 0.0 mm
01:01 8.8 °C 8.0 °C 1013.1 hPa ENE 10.5 km/h 13.7 km/h 93 % 0.0 mm
01:06 8.8 °C 8.0 °C 1013.1 hPa NE 7.9 km/h 13.7 km/h 93 % 0.0 mm
01:11 8.8 °C 8.0 °C 1013.1 hPa NE 10.5 km/h 14.3 km/h 93 % 0.0 mm
01:16 8.7 °C 8.0 °C 1013.1 hPa NE 10.1 km/h 14.3 km/h 93 % 0.0 mm
01:21 8.7 °C 8.0 °C 1013.1 hPa ENE 10.5 km/h 14.0 km/h 94 % 0.0 mm
01:26 8.7 °C 8.0 °C 1013.1 hPa ENE 10.5 km/h 14.0 km/h 94 % 0.0 mm
01:31 8.7 °C 8.0 °C 1013.1 hPa ENE 9.3 km/h 14.0 km/h 94 % 0.0 mm
01:36 8.7 °C 8.0 °C 1013.1 hPa NE 12.2 km/h 14.0 km/h 94 % 0.0 mm
01:41 8.6 °C 8.0 °C 1013.1 hPa NE 10.5 km/h 14.0 km/h 94 % 0.0 mm
01:46 8.6 °C 8.0 °C 1013.1 hPa ENE 10.1 km/h 14.0 km/h 95 % 0.0 mm
01:51 8.6 °C 8.0 °C 1013.1 hPa NNE 12.2 km/h 14.0 km/h 95 % 0.0 mm
01:56 8.6 °C 8.0 °C 1013.1 hPa ENE 9.0 km/h 14.0 km/h 95 % 0.0 mm
02:01 8.5 °C 8.0 °C 1013.1 hPa ENE 9.7 km/h 14.0 km/h 95 % 0.0 mm
02:06 8.5 °C 8.0 °C 1013.1 hPa ENE 7.9 km/h 10.5 km/h 95 % 0.0 mm
02:11 8.4 °C 8.0 °C 1013.1 hPa ENE 11.9 km/h 13.7 km/h 95 % 0.0 mm
02:16 8.4 °C 8.0 °C 1013.1 hPa NE 12.2 km/h 13.7 km/h 95 % 0.0 mm
02:21 8.5 °C 8.0 °C 1013.1 hPa NE 9.0 km/h 14.0 km/h 95 % 0.0 mm
02:26 8.5 °C 8.0 °C 1013.1 hPa ENE 10.8 km/h 14.0 km/h 95 % 0.0 mm
02:32 8.5 °C 9.0 °C 1013.1 hPa ENE 10.1 km/h 14.8 km/h 96 % 0.0 mm
02:37 8.5 °C 9.0 °C 1012.1 hPa ENE 9.7 km/h 14.8 km/h 96 % 0.0 mm
02:42 8.4 °C 8.0 °C 1012.1 hPa East 9.7 km/h 14.3 km/h 96 % 0.0 mm
02:47 8.4 °C 8.0 °C 1012.1 hPa ENE 9.7 km/h 14.3 km/h 96 % 0.0 mm
02:52 8.4 °C 8.0 °C 1012.1 hPa NE 10.5 km/h 13.7 km/h 96 % 0.0 mm
02:54 8.4 °C 8.0 °C 1012.1 hPa ENE 12.2 km/h 13.7 km/h 96 % 0.0 mm
02:59 8.4 °C 8.0 °C 1012.1 hPa ENE 9.3 km/h 13.7 km/h 96 % 0.0 mm
03:00 8.4 °C 8.0 °C 1012.1 hPa NE 8.7 km/h 13.7 km/h 96 % 0.0 mm
03:05 8.3 °C 8.0 °C 1012.1 hPa NE 12.2 km/h 16.3 km/h 96 % 0.0 mm
03:10 8.3 °C 8.0 °C 1012.1 hPa East 6.4 km/h 16.3 km/h 96 % 0.0 mm
03:15 8.3 °C 8.0 °C 1012.1 hPa ENE 9.3 km/h 15.1 km/h 97 % 0.0 mm
03:20 8.2 °C 8.0 °C 1012.1 hPa NE 8.7 km/h 14.0 km/h 96 % 0.0 mm
03:25 8.2 °C 8.0 °C 1012.1 hPa ENE 12.6 km/h 13.7 km/h 96 % 0.0 mm
03:30 8.2 °C 8.0 °C 1012.1 hPa ENE 9.3 km/h 13.7 km/h 96 % 0.0 mm
03:35 8.2 °C 8.0 °C 1012.1 hPa ENE 9.7 km/h 14.0 km/h 97 % 0.0 mm
03:40 8.1 °C 8.0 °C 1011.1 hPa ENE 8.7 km/h 14.0 km/h 97 % 0.0 mm
03:45 8.1 °C 8.0 °C 1011.1 hPa NE 9.0 km/h 16.6 km/h 97 % 0.0 mm
03:50 8.1 °C 8.0 °C 1011.1 hPa NE 9.3 km/h 16.6 km/h 97 % 0.0 mm
03:55 8.0 °C 8.0 °C 1011.1 hPa ENE 8.7 km/h 12.6 km/h 97 % 0.0 mm
04:00 8.0 °C 8.0 °C 1011.1 hPa ENE 12.6 km/h 15.1 km/h 97 % 0.0 mm
04:05 8.0 °C 8.0 °C 1011.1 hPa East 11.1 km/h 15.1 km/h 97 % 0.0 mm
04:10 8.0 °C 8.0 °C 1011.1 hPa ENE 14.0 km/h 14.0 km/h 97 % 0.0 mm
04:15 8.0 °C 8.0 °C 1011.1 hPa ENE 9.0 km/h 14.0 km/h 97 % 0.0 mm
04:20 7.9 °C 8.0 °C 1011.1 hPa NE 9.0 km/h 14.0 km/h 97 % 0.0 mm
04:25 7.9 °C 8.0 °C 1011.1 hPa NE 10.1 km/h 12.2 km/h 97 % 0.0 mm
04:30 7.9 °C 8.0 °C 1011.1 hPa East 8.7 km/h 13.7 km/h 98 % 0.0 mm
04:35 7.9 °C 8.0 °C 1011.1 hPa ENE 10.1 km/h 13.7 km/h 98 % 0.0 mm
04:40 7.8 °C 8.0 °C 1011.1 hPa NE 10.5 km/h 13.0 km/h 98 % 0.0 mm
04:41 7.8 °C 8.0 °C 1011.1 hPa ENE 8.7 km/h 13.0 km/h 98 % 0.0 mm
04:46 7.8 °C 8.0 °C 1011.1 hPa NE 9.7 km/h 13.7 km/h 98 % 0.0 mm
04:51 7.7 °C 8.0 °C 1010.0 hPa NE 10.5 km/h 13.7 km/h 98 % 0.0 mm
04:52 7.7 °C 8.0 °C 1010.0 hPa ENE 11.6 km/h 13.0 km/h 98 % 0.0 mm
04:57 7.7 °C 8.0 °C 1010.0 hPa ENE 9.3 km/h 13.0 km/h 98 % 0.0 mm
05:02 7.6 °C 8.0 °C 1010.0 hPa NE 9.3 km/h 13.0 km/h 98 % 0.0 mm
05:07 7.5 °C 8.0 °C 1011.1 hPa NE 12.2 km/h 13.0 km/h 98 % 0.0 mm
05:12 7.5 °C 8.0 °C 1011.1 hPa NE 12.6 km/h 12.6 km/h 98 % 0.0 mm
05:17 7.5 °C 8.0 °C 1011.1 hPa NE 10.1 km/h 14.0 km/h 98 % 0.0 mm
05:23 7.5 °C 8.0 °C 1011.1 hPa East 12.2 km/h 14.0 km/h 98 % 0.0 mm
05:28 7.4 °C 7.0 °C 1011.1 hPa NE 8.7 km/h 12.6 km/h 98 % 0.0 mm
05:33 7.4 °C 7.0 °C 1011.1 hPa ENE 6.9 km/h 13.0 km/h 98 % 0.0 mm
05:38 7.3 °C 7.0 °C 1011.1 hPa NE 9.7 km/h 14.0 km/h 98 % 0.0 mm
05:43 7.4 °C 7.0 °C 1011.1 hPa NE 12.6 km/h 14.0 km/h 98 % 0.0 mm
05:48 7.3 °C 7.0 °C 1011.1 hPa ENE 9.0 km/h 13.0 km/h 98 % 0.0 mm
05:53 7.3 °C 7.0 °C 1011.1 hPa ENE 10.5 km/h 13.0 km/h 98 % 0.0 mm
05:58 7.3 °C 7.0 °C 1011.1 hPa NE 9.3 km/h 13.7 km/h 98 % 0.0 mm
06:03 7.2 °C 7.0 °C 1011.1 hPa NE 11.9 km/h 13.7 km/h 98 % 0.0 mm
06:08 7.3 °C 7.0 °C 1011.1 hPa ENE 10.5 km/h 13.7 km/h 98 % 0.0 mm
06:13 7.3 °C 7.0 °C 1011.1 hPa NE 12.2 km/h 15.8 km/h 98 % 0.0 mm
06:18 7.2 °C 7.0 °C 1011.1 hPa NE 11.9 km/h 15.8 km/h 98 % 0.0 mm
06:23 7.2 °C 7.0 °C 1010.0 hPa ENE 12.6 km/h 15.4 km/h 98 % 0.0 mm
06:28 7.2 °C 7.0 °C 1010.0 hPa East 11.1 km/h 15.4 km/h 98 % 0.0 mm
06:33 7.1 °C 7.0 °C 1010.0 hPa NE 10.5 km/h 14.0 km/h 98 % 0.0 mm
06:38 7.1 °C 7.0 °C 1010.0 hPa ENE 11.9 km/h 14.0 km/h 98 % 0.0 mm
06:43 7.1 °C 7.0 °C 1010.0 hPa East 8.7 km/h 14.8 km/h 98 % 0.0 mm
06:48 7.1 °C 7.0 °C 1010.0 hPa ENE 12.2 km/h 14.8 km/h 98 % 0.0 mm
06:53 7.2 °C 7.0 °C 1010.0 hPa NE 8.7 km/h 14.0 km/h 98 % 0.0 mm
06:58 7.2 °C 7.0 °C 1010.0 hPa NE 13.0 km/h 14.0 km/h 98 % 0.0 mm
07:03 7.3 °C 7.0 °C 1010.0 hPa ENE 9.0 km/h 16.6 km/h 98 % 0.0 mm
07:08 7.4 °C 7.0 °C 1010.0 hPa ENE 10.8 km/h 16.6 km/h 98 % 0.0 mm
07:14 7.5 °C 8.0 °C 1010.0 hPa NE 12.2 km/h 14.0 km/h 98 % 0.0 mm
07:19 7.6 °C 8.0 °C 1010.0 hPa ENE 9.3 km/h 14.0 km/h 98 % 0.0 mm
07:20 7.6 °C 8.0 °C 1010.0 hPa ENE 16.9 km/h 16.9 km/h 98 % 0.0 mm
07:25 7.7 °C 8.0 °C 1009.0 hPa ENE 14.0 km/h 16.9 km/h 98 % 0.0 mm
07:30 7.8 °C 8.0 °C 1009.0 hPa NE 12.6 km/h 16.9 km/h 98 % 0.0 mm
07:35 7.9 °C 8.0 °C 1009.0 hPa NE 12.2 km/h 15.8 km/h 98 % 0.0 mm
07:40 8.0 °C 8.0 °C 1009.0 hPa NE 11.6 km/h 14.8 km/h 98 % 0.0 mm
07:45 8.1 °C 8.0 °C 1009.0 hPa NE 16.6 km/h 16.6 km/h 98 % 0.0 mm
07:50 8.3 °C 9.0 °C 1009.0 hPa ENE 9.7 km/h 16.6 km/h 98 % 0.0 mm
07:55 8.5 °C 9.0 °C 1009.0 hPa NNE 6.4 km/h 16.3 km/h 98 % 0.0 mm
08:00 8.6 °C 9.0 °C 1009.0 hPa ENE 16.3 km/h 16.6 km/h 98 % 0.0 mm
08:05 8.9 °C 9.0 °C 1009.0 hPa NE 10.5 km/h 16.6 km/h 98 % 0.0 mm
08:10 9.0 °C 9.0 °C 1009.0 hPa NE 16.6 km/h 16.9 km/h 98 % 0.0 mm
08:16 9.1 °C 9.0 °C 1009.0 hPa ENE 10.5 km/h 16.9 km/h 98 % 0.0 mm
08:21 9.3 °C 9.0 °C 1009.0 hPa NE 14.0 km/h 16.3 km/h 98 % 0.0 mm
08:26 9.4 °C 9.0 °C 1009.0 hPa NNE 11.9 km/h 16.9 km/h 98 % 0.0 mm
08:31 9.5 °C 10.0 °C 1009.0 hPa NNE 12.2 km/h 16.9 km/h 98 % 0.0 mm
08:36 9.8 °C 10.0 °C 1009.0 hPa NE 12.2 km/h 19.5 km/h 98 % 0.0 mm
08:41 10.2 °C 10.0 °C 1009.0 hPa NE 10.5 km/h 19.5 km/h 97 % 0.0 mm
08:46 10.4 °C 10.0 °C 1009.0 hPa ENE 11.6 km/h 16.6 km/h 97 % 0.0 mm
08:51 10.6 °C 10.0 °C 1008.0 hPa ENE 13.0 km/h 17.2 km/h 96 % 0.0 mm
08:56 10.9 °C 11.0 °C 1008.0 hPa NE 12.2 km/h 17.2 km/h 96 % 0.0 mm
09:01 11.1 °C 10.0 °C 1008.0 hPa NE 13.0 km/h 16.9 km/h 95 % 0.0 mm
09:06 11.3 °C 10.0 °C 1009.0 hPa ENE 13.7 km/h 16.9 km/h 94 % 0.0 mm
09:11 11.5 °C 11.0 °C 1009.0 hPa NE 14.0 km/h 16.3 km/h 94 % 0.0 mm
09:16 11.6 °C 10.0 °C 1009.0 hPa NNE 6.9 km/h 17.7 km/h 92 % 0.0 mm
09:21 11.7 °C 10.0 °C 1009.0 hPa NE 13.7 km/h 17.7 km/h 91 % 0.0 mm
09:26 11.9 °C 11.0 °C 1009.0 hPa NNE 12.6 km/h 19.1 km/h 91 % 0.0 mm
09:31 12.1 °C 11.0 °C 1009.0 hPa NE 14.0 km/h 20.1 km/h 89 % 0.0 mm
09:36 12.3 °C 11.0 °C 1009.0 hPa NNE 15.8 km/h 21.2 km/h 87 % 0.0 mm
09:41 12.4 °C 10.0 °C 1009.0 hPa ENE 17.7 km/h 21.2 km/h 86 % 0.0 mm
09:46 12.8 °C 11.0 °C 1009.0 hPa ENE 9.0 km/h 19.8 km/h 86 % 0.0 mm
09:52 12.9 °C 10.0 °C 1010.0 hPa NNE 16.6 km/h 20.9 km/h 83 % 0.0 mm
09:57 13.2 °C 11.0 °C 1010.0 hPa ENE 12.6 km/h 20.9 km/h 83 % 0.0 mm
10:02 13.6 °C 11.0 °C 1010.0 hPa ENE 11.1 km/h 19.8 km/h 83 % 0.0 mm
10:07 13.7 °C 11.0 °C 1009.0 hPa ENE 13.7 km/h 19.5 km/h 82 % 0.0 mm
10:12 13.9 °C 11.0 °C 1009.0 hPa NE 9.3 km/h 19.5 km/h 80 % 0.0 mm
10:17 14.0 °C 10.0 °C 1009.0 hPa ENE 12.6 km/h 20.1 km/h 78 % 0.0 mm
10:22 14.3 °C 11.0 °C 1009.0 hPa NE 17.7 km/h 20.9 km/h 78 % 0.0 mm
10:27 14.5 °C 11.0 °C 1009.0 hPa NE 12.6 km/h 20.9 km/h 77 % 0.0 mm
10:32 14.5 °C 10.0 °C 1009.0 hPa NE 16.9 km/h 20.1 km/h 74 % 0.0 mm
10:37 14.5 °C 11.0 °C 1009.0 hPa ENE 10.5 km/h 20.1 km/h 75 % 0.0 mm
10:42 15.0 °C 11.0 °C 1009.0 hPa NNE 17.7 km/h 17.7 km/h 75 % 0.0 mm
10:47 15.0 °C 10.0 °C 1009.0 hPa ENE 14.0 km/h 17.7 km/h 73 % 0.0 mm
10:52 15.4 °C 11.0 °C 1009.0 hPa NE 14.0 km/h 17.2 km/h 74 % 0.0 mm
10:57 15.5 °C 11.0 °C 1009.0 hPa ENE 16.3 km/h 16.9 km/h 72 % 0.0 mm
11:02 15.8 °C 11.0 °C 1009.0 hPa NE 17.2 km/h 18.3 km/h 72 % 0.0 mm
11:07 15.9 °C 11.0 °C 1008.0 hPa NE 12.6 km/h 20.9 km/h 70 % 0.0 mm
11:12 16.1 °C 10.0 °C 1008.0 hPa ENE 12.2 km/h 20.9 km/h 67 % 0.0 mm
11:17 16.3 °C 11.0 °C 1008.0 hPa NE 10.5 km/h 20.1 km/h 69 % 0.0 mm
11:22 16.4 °C 10.0 °C 1008.0 hPa NNE 16.9 km/h 21.2 km/h 67 % 0.0 mm
11:27 16.6 °C 11.0 °C 1008.0 hPa NE 16.3 km/h 21.2 km/h 68 % 0.0 mm
11:32 17.0 °C 11.0 °C 1008.0 hPa NE 14.0 km/h 19.5 km/h 66 % 0.0 mm
11:37 17.2 °C 11.0 °C 1008.0 hPa NE 12.2 km/h 19.5 km/h 66 % 0.0 mm
11:42 17.3 °C 11.0 °C 1008.0 hPa ENE 17.7 km/h 21.6 km/h 64 % 0.0 mm
11:47 17.3 °C 10.0 °C 1008.0 hPa ENE 13.7 km/h 21.6 km/h 63 % 0.0 mm
11:52 17.6 °C 10.0 °C 1007.0 hPa NE 14.8 km/h 19.1 km/h 61 % 0.0 mm
11:58 17.8 °C 11.0 °C 1007.0 hPa ENE 13.7 km/h 19.1 km/h 63 % 0.0 mm
12:03 17.9 °C 10.0 °C 1007.0 hPa NE 15.8 km/h 20.1 km/h 61 % 0.0 mm
12:08 18.0 °C 10.0 °C 1007.0 hPa NE 12.2 km/h 20.9 km/h 59 % 0.0 mm
12:13 18.4 °C 11.0 °C 1007.0 hPa NE 12.2 km/h 20.9 km/h 61 % 0.0 mm
12:18 18.6 °C 11.0 °C 1007.0 hPa ENE 14.0 km/h 18.0 km/h 61 % 0.0 mm
12:23 18.5 °C 11.0 °C 1007.0 hPa ENE 13.7 km/h 20.6 km/h 60 % 0.0 mm
12:28 19.0 °C 10.0 °C 1007.0 hPa NNE 15.8 km/h 20.6 km/h 57 % 0.0 mm
12:33 19.1 °C 10.0 °C 1007.0 hPa ENE 13.7 km/h 20.1 km/h 56 % 0.0 mm
12:38 19.2 °C 10.0 °C 1006.0 hPa East 13.7 km/h 20.1 km/h 56 % 0.0 mm
12:43 19.1 °C 10.0 °C 1006.0 hPa ENE 14.0 km/h 20.1 km/h 55 % 0.0 mm
12:48 19.3 °C 10.0 °C 1006.0 hPa East 9.0 km/h 20.1 km/h 56 % 0.0 mm
12:53 19.6 °C 10.0 °C 1007.0 hPa East 7.9 km/h 20.1 km/h 53 % 0.0 mm
12:55 19.8 °C 10.0 °C 1007.0 hPa ENE 19.5 km/h 19.5 km/h 54 % 0.0 mm
13:00 19.7 °C 10.0 °C 1007.0 hPa NE 14.0 km/h 20.6 km/h 53 % 0.0 mm
13:05 19.8 °C 10.0 °C 1007.0 hPa NE 16.6 km/h 20.6 km/h 53 % 0.0 mm
13:10 19.8 °C 10.0 °C 1007.0 hPa ENE 14.3 km/h 20.6 km/h 52 % 0.0 mm
13:15 19.6 °C 10.0 °C 1007.0 hPa NE 12.6 km/h 20.6 km/h 52 % 0.0 mm
13:20 20.0 °C 10.0 °C 1007.0 hPa NE 13.0 km/h 19.8 km/h 53 % 0.0 mm
13:25 20.3 °C 10.0 °C 1007.0 hPa NE 16.3 km/h 19.8 km/h 51 % 0.0 mm
13:30 20.6 °C 10.0 °C 1007.0 hPa East 12.6 km/h 18.0 km/h 51 % 0.0 mm
13:35 21.1 °C 11.0 °C 1007.0 hPa ENE 10.1 km/h 18.0 km/h 52 % 0.0 mm
13:40 21.2 °C 10.0 °C 1007.0 hPa East 13.0 km/h 16.9 km/h 49 % 0.0 mm
13:45 21.0 °C 10.0 °C 1007.0 hPa ENE 14.0 km/h 16.9 km/h 50 % 0.0 mm
13:50 20.8 °C 10.0 °C 1007.0 hPa NE 15.8 km/h 17.2 km/h 49 % 0.0 mm
13:55 20.6 °C 10.0 °C 1007.0 hPa NNE 12.6 km/h 17.7 km/h 49 % 0.0 mm
14:00 21.1 °C 10.0 °C 1007.0 hPa NE 9.3 km/h 17.7 km/h 49 % 0.0 mm
14:05 20.6 °C 10.0 °C 1007.0 hPa ENE 15.8 km/h 16.6 km/h 49 % 0.0 mm
14:11 20.8 °C 9.0 °C 1007.0 hPa NE 15.8 km/h 19.5 km/h 48 % 0.0 mm
14:16 21.1 °C 10.0 °C 1007.0 hPa ENE 12.6 km/h 19.5 km/h 49 % 0.0 mm
14:21 20.9 °C 10.0 °C 1007.0 hPa ENE 13.7 km/h 17.7 km/h 48 % 0.0 mm
14:26 21.3 °C 10.0 °C 1007.0 hPa ENE 11.9 km/h 17.7 km/h 49 % 0.0 mm
14:31 21.2 °C 10.0 °C 1007.0 hPa NNE 5.8 km/h 16.9 km/h 48 % 0.0 mm
14:36 21.6 °C 11.0 °C 1006.0 hPa ENE 13.7 km/h 16.9 km/h 49 % 0.0 mm
14:41 21.4 °C 10.0 °C 1006.0 hPa ENE 9.3 km/h 16.9 km/h 48 % 0.0 mm
14:46 21.4 °C 10.0 °C 1006.0 hPa East 8.7 km/h 23.3 km/h 48 % 0.0 mm
14:51 21.8 °C 10.0 °C 1006.0 hPa NNE 10.1 km/h 23.3 km/h 48 % 0.0 mm
14:56 22.2 °C 11.0 °C 1006.0 hPa NE 8.7 km/h 27.4 km/h 48 % 0.0 mm
15:01 22.6 °C 11.0 °C 1006.0 hPa East 10.5 km/h 27.4 km/h 48 % 0.0 mm
15:06 22.4 °C 11.0 °C 1007.0 hPa NE 8.7 km/h 17.2 km/h 47 % 0.0 mm
15:11 22.1 °C 10.0 °C 1007.0 hPa East 12.2 km/h 17.2 km/h 46 % 0.0 mm
15:16 21.8 °C 10.0 °C 1007.0 hPa ENE 10.5 km/h 16.9 km/h 46 % 0.0 mm
15:21 21.9 °C 10.0 °C 1007.0 hPa ESE 10.5 km/h 16.9 km/h 46 % 0.0 mm
15:22 21.9 °C 10.0 °C 1007.0 hPa ESE 14.8 km/h 16.9 km/h 46 % 0.0 mm
15:27 21.9 °C 10.0 °C 1007.0 hPa East 14.0 km/h 16.9 km/h 46 % 0.0 mm
15:32 21.7 °C 10.0 °C 1007.0 hPa ESE 16.6 km/h 20.6 km/h 46 % 0.0 mm
15:37 21.7 °C 10.0 °C 1007.0 hPa ESE 9.7 km/h 21.6 km/h 46 % 0.0 mm
15:42 21.5 °C 10.0 °C 1007.0 hPa East 10.5 km/h 21.6 km/h 46 % 0.0 mm
15:47 21.1 °C 9.0 °C 1007.0 hPa ENE 10.5 km/h 20.9 km/h 46 % 0.0 mm
15:52 21.0 °C 9.0 °C 1007.0 hPa ESE 14.0 km/h 20.9 km/h 46 % 0.0 mm
15:57 20.9 °C 9.0 °C 1007.0 hPa East 5.8 km/h 14.0 km/h 47 % 0.0 mm
16:02 20.8 °C 9.0 °C 1007.0 hPa East 11.9 km/h 17.2 km/h 47 % 0.0 mm
16:07 20.9 °C 9.0 °C 1007.0 hPa NNE 10.5 km/h 17.2 km/h 47 % 0.0 mm
16:12 20.8 °C 9.0 °C 1007.0 hPa ESE 12.6 km/h 16.3 km/h 47 % 0.0 mm
16:17 20.8 °C 9.0 °C 1007.0 hPa ESE 11.9 km/h 16.3 km/h 48 % 0.0 mm
16:22 20.9 °C 10.0 °C 1007.0 hPa East 11.9 km/h 14.0 km/h 48 % 0.0 mm
16:28 20.9 °C 10.0 °C 1007.0 hPa NE 9.0 km/h 13.0 km/h 48 % 0.0 mm
16:33 20.9 °C 10.0 °C 1007.0 hPa ESE 5.0 km/h 13.0 km/h 48 % 0.0 mm
16:38 20.9 °C 10.0 °C 1007.0 hPa East 10.1 km/h 14.3 km/h 48 % 0.0 mm
16:43 20.9 °C 10.0 °C 1007.0 hPa NE 9.7 km/h 14.3 km/h 48 % 0.0 mm
16:48 21.0 °C 9.0 °C 1007.0 hPa East 10.1 km/h 12.6 km/h 47 % 0.0 mm
16:53 20.9 °C 10.0 °C 1007.0 hPa ENE 9.7 km/h 12.2 km/h 48 % 0.0 mm
16:58 20.6 °C 9.0 °C 1007.0 hPa North 10.5 km/h 14.0 km/h 48 % 0.0 mm
17:03 20.5 °C 9.0 °C 1007.0 hPa ENE 9.7 km/h 14.0 km/h 48 % 0.0 mm
17:08 20.5 °C 9.0 °C 1007.0 hPa NNE 6.1 km/h 12.6 km/h 47 % 0.0 mm
17:13 20.5 °C 9.0 °C 1007.0 hPa NNE 10.1 km/h 12.6 km/h 47 % 0.0 mm
17:18 20.5 °C 9.0 °C 1007.0 hPa NNE 10.1 km/h 14.0 km/h 47 % 0.0 mm
17:23 20.6 °C 9.0 °C 1007.0 hPa NE 11.9 km/h 14.0 km/h 47 % 0.0 mm
17:28 20.6 °C 9.0 °C 1007.0 hPa East 4.0 km/h 14.0 km/h 47 % 0.0 mm
17:33 20.5 °C 9.0 °C 1007.0 hPa ENE 10.5 km/h 13.7 km/h 47 % 0.0 mm
17:38 20.4 °C 9.0 °C 1007.0 hPa NE 6.4 km/h 11.9 km/h 47 % 0.0 mm
17:43 20.3 °C 9.0 °C 1007.0 hPa NE 12.6 km/h 15.8 km/h 46 % 0.0 mm
17:48 20.3 °C 9.0 °C 1007.0 hPa ENE 6.4 km/h 16.6 km/h 46 % 0.0 mm
17:53 20.3 °C 9.0 °C 1007.0 hPa NE 9.3 km/h 16.6 km/h 47 % 0.0 mm
17:58 20.2 °C 9.0 °C 1007.0 hPa ENE 7.9 km/h 13.0 km/h 46 % 0.0 mm
18:03 20.2 °C 9.0 °C 1007.0 hPa NE 7.9 km/h 13.0 km/h 47 % 0.0 mm
18:08 20.1 °C 8.0 °C 1008.0 hPa NE 10.5 km/h 13.7 km/h 46 % 0.0 mm
18:13 19.9 °C 9.0 °C 1008.0 hPa NE 16.6 km/h 20.1 km/h 47 % 0.0 mm
18:18 19.8 °C 9.0 °C 1008.0 hPa NE 10.5 km/h 20.1 km/h 48 % 0.0 mm
18:23 19.7 °C 9.0 °C 1008.0 hPa North 17.7 km/h 19.5 km/h 48 % 0.0 mm
18:28 19.5 °C 9.0 °C 1008.0 hPa North 16.9 km/h 25.3 km/h 48 % 0.0 mm
18:33 19.3 °C 8.0 °C 1008.0 hPa North 9.7 km/h 25.3 km/h 48 % 0.0 mm
18:38 19.2 °C 9.0 °C 1006.0 hPa NNE 12.6 km/h 20.9 km/h 49 % 0.0 mm
18:39 19.2 °C 9.0 °C 1006.0 hPa NNE 11.9 km/h 20.9 km/h 49 % 0.0 mm
18:44 19.1 °C 8.0 °C 1006.0 hPa NE 9.0 km/h 20.9 km/h 49 % 0.0 mm
18:49 19.0 °C 9.0 °C 1006.0 hPa NNE 15.1 km/h 17.2 km/h 50 % 0.0 mm
18:54 19.0 °C 9.0 °C 1006.0 hPa NE 13.0 km/h 17.2 km/h 50 % 0.0 mm
18:59 18.9 °C 9.0 °C 1006.0 hPa NE 12.2 km/h 17.2 km/h 51 % 0.0 mm
19:04 18.9 °C 9.0 °C 1006.0 hPa NE 13.7 km/h 20.6 km/h 51 % 0.0 mm
19:09 18.8 °C 9.0 °C 1007.0 hPa ENE 8.7 km/h 20.6 km/h 52 % 0.0 mm
19:14 18.8 °C 9.0 °C 1007.0 hPa North 12.6 km/h 17.2 km/h 53 % 0.0 mm
19:19 18.7 °C 9.0 °C 1007.0 hPa NE 9.0 km/h 15.8 km/h 54 % 0.0 mm
19:24 18.7 °C 9.0 °C 1007.0 hPa North 9.3 km/h 15.8 km/h 55 % 0.0 mm
19:29 18.6 °C 9.0 °C 1007.0 hPa NNE 7.9 km/h 12.6 km/h 55 % 0.0 mm
19:34 18.5 °C 10.0 °C 1007.0 hPa East 7.6 km/h 12.6 km/h 56 % 0.0 mm
19:39 18.3 °C 10.0 °C 1007.0 hPa East 6.9 km/h 12.2 km/h 57 % 0.0 mm
19:44 18.0 °C 10.0 °C 1007.0 hPa SSE 10.5 km/h 10.5 km/h 59 % 0.0 mm
19:49 17.6 °C 10.0 °C 1007.0 hPa Calm   10.5 km/h 62 % 0.0 mm
19:54 17.3 °C 11.0 °C 1007.0 hPa South 9.0 km/h 9.7 km/h 64 % 0.0 mm
19:59 17.0 °C 11.0 °C 1007.0 hPa SE 1.8 km/h 9.0 km/h 65 % 0.0 mm
20:04 16.9 °C 11.0 °C 1007.0 hPa Calm   5.5 km/h 66 % 0.0 mm
20:09 16.7 °C 11.0 °C 1008.0 hPa Calm   5.5 km/h 67 % 0.0 mm
20:14 16.6 °C 11.0 °C 1008.0 hPa North 1.8 km/h 3.2 km/h 69 % 0.0 mm
20:19 16.5 °C 11.0 °C 1008.0 hPa NNW 4.7 km/h 4.7 km/h 69 % 0.0 mm
20:24 16.5 °C 11.0 °C 1008.0 hPa NNE 1.8 km/h 5.8 km/h 69 % 0.0 mm
20:29 16.5 °C 11.0 °C 1008.0 hPa NE 4.7 km/h 6.1 km/h 69 % 0.0 mm
20:34 16.5 °C 11.0 °C 1008.0 hPa Calm   6.1 km/h 69 % 0.0 mm
20:39 16.3 °C 11.0 °C 1008.0 hPa Calm   6.1 km/h 70 % 0.0 mm
20:44 16.1 °C 11.0 °C 1008.0 hPa ENE 5.0 km/h 5.8 km/h 71 % 0.0 mm
20:49 16.0 °C 11.0 °C 1008.0 hPa Calm   5.8 km/h 72 % 0.0 mm
20:54 16.0 °C 11.0 °C 1009.0 hPa Calm   11.6 km/h 71 % 0.0 mm
20:59 15.9 °C 11.0 °C 1009.0 hPa Calm   11.6 km/h 72 % 0.0 mm
21:05 15.9 °C 11.0 °C 1009.0 hPa ENE 1.4 km/h 9.3 km/h 71 % 0.0 mm
21:10 16.0 °C 11.0 °C 1009.0 hPa NE 6.1 km/h 11.9 km/h 70 % 0.0 mm
21:15 16.0 °C 10.0 °C 1009.0 hPa NNE 13.0 km/h 13.0 km/h 69 % 0.0 mm
21:20 16.0 °C 10.0 °C 1009.0 hPa North 9.0 km/h 13.7 km/h 69 % 0.0 mm
21:25 16.0 °C 10.0 °C 1009.0 hPa North 10.1 km/h 14.0 km/h 69 % 0.0 mm
21:30 15.9 °C 10.0 °C 1009.0 hPa NNE 6.4 km/h 14.0 km/h 69 % 0.0 mm
21:35 15.8 °C 10.0 °C 1009.0 hPa North 9.0 km/h 10.1 km/h 69 % 0.0 mm
21:40 15.7 °C 10.0 °C 1009.0 hPa NNE 7.9 km/h 10.1 km/h 69 % 0.0 mm
21:45 15.6 °C 10.0 °C 1009.0 hPa NNW 7.6 km/h 11.6 km/h 69 % 0.0 mm
21:50 15.6 °C 10.0 °C 1009.0 hPa NW 4.7 km/h 11.6 km/h 70 % 0.0 mm
21:55 15.4 °C 10.0 °C 1009.0 hPa North 7.9 km/h 11.9 km/h 70 % 0.0 mm
22:00 15.3 °C 10.0 °C 1009.0 hPa North 10.5 km/h 11.9 km/h 71 % 0.0 mm
22:05 15.2 °C 10.0 °C 1009.0 hPa NNW 3.2 km/h 11.6 km/h 71 % 0.0 mm
22:10 15.1 °C 10.0 °C 1009.0 hPa North 6.1 km/h 12.2 km/h 71 % 0.0 mm
22:15 14.9 °C 10.0 °C 1009.0 hPa NNW 3.5 km/h 12.2 km/h 72 % 0.0 mm
22:20 14.8 °C 10.0 °C 1009.0 hPa North 13.0 km/h 13.0 km/h 73 % 0.0 mm
22:25 14.7 °C 10.0 °C 1009.0 hPa NNW 5.5 km/h 13.0 km/h 73 % 0.0 mm
22:30 14.6 °C 10.0 °C 1009.0 hPa ENE 9.3 km/h 13.7 km/h 73 % 0.0 mm
22:35 14.5 °C 10.0 °C 1009.0 hPa North 12.6 km/h 14.0 km/h 74 % 0.0 mm
22:40 14.4 °C 10.0 °C 1009.0 hPa North 12.2 km/h 15.8 km/h 74 % 0.0 mm
22:45 14.3 °C 10.0 °C 1009.0 hPa North 5.8 km/h 15.8 km/h 74 % 0.0 mm
22:50 14.2 °C 10.0 °C 1009.0 hPa North 12.2 km/h 12.2 km/h 75 % 0.0 mm
22:55 14.2 °C 10.0 °C 1010.0 hPa NNW 6.1 km/h 12.2 km/h 75 % 0.0 mm
23:00 14.1 °C 10.0 °C 1010.0 hPa NNW 5.5 km/h 13.7 km/h 76 % 0.0 mm
23:05 14.0 °C 10.0 °C 1010.0 hPa NNW 8.7 km/h 13.7 km/h 76 % 0.0 mm
23:11 14.0 °C 10.0 °C 1010.0 hPa NNW 9.7 km/h 12.2 km/h 77 % 0.0 mm
23:16 13.9 °C 10.0 °C 1010.0 hPa NNE 6.1 km/h 12.2 km/h 78 % 0.0 mm
23:21 13.8 °C 10.0 °C 1010.0 hPa North 6.1 km/h 12.2 km/h 78 % 0.0 mm
23:26 13.7 °C 10.0 °C 1010.0 hPa North 3.2 km/h 10.5 km/h 79 % 0.0 mm
23:31 13.7 °C 11.0 °C 1010.0 hPa North 9.0 km/h 11.9 km/h 80 % 0.0 mm
23:36 13.7 °C 11.0 °C 1010.0 hPa NNW 5.0 km/h 14.0 km/h 80 % 0.0 mm
23:41 13.6 °C 11.0 °C 1010.0 hPa North 11.1 km/h 15.4 km/h 81 % 0.0 mm
23:46 13.6 °C 11.0 °C 1010.0 hPa North 5.8 km/h 15.4 km/h 81 % 0.0 mm
23:51 13.5 °C 11.0 °C 1010.0 hPa North 8.7 km/h 12.6 km/h 81 % 0.0 mm
23:56 13.5 °C 11.0 °C 1010.0 hPa NNW 5.5 km/h 12.6 km/h 81 % 0.0 mm
Le Gheer Warneton
Courtoisie de Weather Underground - 2.25 mb

Mise a jour : 17-12-17 09:05:12
Généré par Cumulus 1.9.4 (1099)